Regional Weather Roundup
Issued by NWS

Home | Current Version | Previous Version | Graphics & Text | Print | Product List | Glossary Off
Versions: 1 2 3 4 5 6 7 8 9 10 11 12 13 14 15 16 17 18 19 20 21 22 23 24 25 26 27

000
ASUS43 KDMX 191607
RWRIA

WEATHER ROUNDUP FOR IOWA
NATIONAL WEATHER SERVICE DES MOINES IA
1100 AM CDT SAT APR 19 2014

NOTE: "FAIR" INDICATES FEW OR NO CLOUDS BELOW 12,000 FEET WITH NO
SIGNIFICANT WEATHER AND/OR OBSTRUCTIONS TO VISIBILITY.

* - THESE STATIONS ARE NOT NWS STATIONS...THUS NOT UNDER NWS
QUALITY CONTROL.  THEY ALSO DO NOT REPORT WEATHER SUCH
AS PRECIPITATION OR FOG.

IAZ001>003-012>014-020>022-031>034-043>046-191700-
   NORTHWEST IOWA

CITY           SKY/WX    TMP DP  RH WIND       PRES   REMARKS
CARROLL *      SUNNY     70  41  35 S25G33    30.08F
CHEROKEE *     PTSUNNY   68  43  40 SW26G35   30.01F
DENISON *      PTSUNNY   68  41  37 S22G33    30.05S
LE MARS *      SUNNY     68  45  42 SW24G33   30.00F
ORANGE CITY *  SUNNY     66  43  42 SW24G31   30.01R
SHELDON *      MOSUNNY   66  45  45 SW26G36   29.99R
SIOUX CITY     PTSUNNY   69  45  41 S22G31    30.03R
SPENCER        SUNNY     69  42  37 S24G37    30.01F
STORM LAKE *   MOSUNNY   68  41  37 S29G36    30.04F
$$

IAZ055>058-069>071-079>083-090>094-191700-
   SOUTHWEST IOWA

CITY           SKY/WX    TMP DP  RH WIND       PRES   REMARKS
ATLANTIC *     SUNNY     68  43  40 S22       30.09F
AUDUBON *      SUNNY     70  34  26 S15G24    30.11S
CLARINDA *     SUNNY     70  43  37 S18G24    30.13F
COUNCIL BLFS * SUNNY     68  45  42 S16G24    30.05F
CRESTON *      SUNNY     68  45  42 SW22      30.14F
HARLAN  *      SUNNY     70  43  37 S23G29    30.10F
LAMONI         SUNNY     65  44  46 S12       30.16S
RED OAK *      SUNNY     70  45  40 S20G31    30.09F
SHENANDOAH *   SUNNY     72  45  37 S16G24    30.11S
$$

IAZ047>049-059>061-072>074-084-191700-
   CENTRAL IOWA

CITY           SKY/WX    TMP DP  RH WIND       PRES   REMARKS
AMES           SUNNY     61  40  45 S21       30.14F
ANKENY *       SUNNY     66  41  39 S15G24    30.15F
CHARITON *     SUNNY     66  45  45 SE15G21   30.18S
DES MOINES     PTSUNNY   68  42  38 S18       30.15F
GRINNELL*      SUNNY     59  39  47 SE21G26   30.21F
KNOXVILLE *    SUNNY     64  41  42 S16       30.19S
MARSHALLTOWN   SUNNY     57  38  48 SE22      30.17F
NEWTON *       SUNNY     59  41  51 SE22G28   30.19F
PELLA *        SUNNY     63  41  45 SE12      30.22F
PERRY *          N/A     68  37  32 S16G24    30.12F
$$

IAZ004>006-015-016-023>025-035-036-191700-
   NORTH CENTRAL IOWA

CITY           SKY/WX    TMP DP  RH WIND       PRES   REMARKS
ALGONA *       SUNNY     61  39  44 S28G33    30.07F
CLARION *      SUNNY     59  39  47 S26G33    30.11F
ESTHERVILLE    SUNNY     66  42  41 S33G41    30.02F
FORT DODGE *   PTSUNNY   61  39  44 S18G28    30.11F
MASON CITY     PTSUNNY   54  37  52 S26G36    30.13F
FOREST CITY *  SUNNY     57  41  54 SE25G32   30.10F
IOWA FALLS *     N/A     59  39  47 SE20G26   30.17S
$$

IAZ007>011-017>019-026>030-037>042-050>054-066-191700-
   NORTHEAST IOWA

CITY           SKY/WX    TMP DP  RH WIND       PRES   REMARKS
CEDAR RAPIDS   SUNNY     56  27  32 SE15      30.25F
CHARLES CITY * SUNNY     52  34  50 S16G29    30.19S
CLINTON *      SUNNY     55  30  38 SE15G21   30.33F
DECORAH *      SUNNY     52  30  43 S17G25    30.21F
DUBUQUE        SUNNY     52  29  41 SE22      30.28F
MONTICELLO *   SUNNY     55  30  38 SE17G28   30.27F
OELWEIN *      SUNNY    N/A N/A N/A SE24      30.23F
WATERLOO       SUNNY     55  31  39 S16G28    30.20F
$$

IAZ064-065-067-068-078-191700-
   EAST CENTRAL IOWA

CITY           SKY/WX    TMP DP  RH WIND       PRES   REMARKS
DAVENPORT      SUNNY     58  28  32 SE22      30.29F
IOWA CITY      SUNNY     56  30  37 SE14G22   30.29S
MT. PLEASANT * SUNNY     63  30  29 S9        30.26S
MUSCATINE *    SUNNY     59  27  29 SE13      30.28F
QUAD CITIES    SUNNY     60  26  27 SE13G21   30.29F
$$

IAZ062-063-075>077-085>089-095>099-191700-
   SOUTHEAST IOWA

CITY           SKY/WX    TMP DP  RH WIND       PRES   REMARKS
BURLINGTON     SUNNY     62  33  33 SE15      30.26F
FAIRFIELD *    SUNNY     61  36  39 SE15      30.25S
FORT MADISON * SUNNY     63  36  36 SE9       30.26F
KEOKUK *       SUNNY     63  37  39 SE10      30.25S
OSKALOOSA *      N/A     61  39  44 S14G20    30.23F
CENTERVILLE *  SUNNY     66  43  42 SE15      30.21S
OTTUMWA        SUNNY     62  39  42 SE15      30.22S
WASHINGTON *   SUNNY     63  30  29 SE16G22   30.25F
$$

ABBREVIATIONS USED IN REMARKS
   TC - TEMPERATURES IN CELSIUS
  WCI - WIND CHILL INDEX
   HX - HEAT INDEX
  VSB - VISIBILITY
$$




USA.gov is the U.S. government's official web portal to all federal, state and local government web resources and services.